Date_and_time,latitude,longitude,wind_speed,RelWindDirFrom,WindDirFrom,air_pressure,air_temperature,relative_humidity,Temp,platform_speed_wrt_ground,air_pressure_at_mean_sea_level,platform_orientation
2019-05-11 23:40,NA,NA,4.1,11.2,65,979.96,14.2,57,3.31,NA,980.66,NA
2019-05-11 23:50,NA,NA,9.3,13.2,249,980.26,12.4,56,2.93,NA,980.96,NA
2019-05-12 00:00,NA,NA,3.9,14.3,227,980.15,13.3,57,2.94,NA,980.85,NA
2019-05-12 00:10,NA,NA,6.5,10.3,180,980.04,12.6,58,3.09,NA,980.74,NA
2019-05-12 00:20,NA,NA,9.3,11.2,198,980.14,9.8,63,3.24,NA,980.85,NA
2019-05-12 00:30,NA,NA,7.0,9.0,189,980.42,8.1,69,3.28,NA,981.12,NA
2019-05-12 00:40,NA,NA,8.6,11.0,203,980.46,8.2,69,3.32,NA,981.16,NA
2019-05-12 00:50,NA,NA,8.2,10.4,188,980.46,6.8,77,3.44,NA,981.17,NA
2019-05-12 01:00,NA,NA,8.4,12.2,198,980.39,5.3,89,3.47,NA,981.10,NA
2019-05-12 01:10,NA,NA,9.6,12.4,207,980.34,5.8,93,3.48,NA,981.05,NA
2019-05-12 01:20,NA,NA,3.9,5.3,182,980.43,4.8,99,3.69,NA,981.14,NA
2019-05-12 01:30,NA,NA,6.0,10.5,218,980.34,4.8,99,3.77,NA,981.05,NA
2019-05-12 01:40,NA,NA,12.0,14.7,235,980.19,5.3,99,3.86,NA,980.90,NA
2019-05-12 01:50,NA,NA,9.9,12.3,256,980.35,5.6,99,4.91,NA,981.06,NA
2019-05-12 02:00,NA,NA,6.2,9.1,264,980.64,5.9,99,4.73,NA,981.35,NA
2019-05-12 02:10,NA,NA,3.9,7.5,164,980.79,5.8,99,4.37,NA,981.51,NA
2019-05-12 02:20,NA,NA,4.8,7.2,154,980.82,6.3,99,4.20,NA,981.54,NA
2019-05-12 02:30,NA,NA,7.6,11.6,166,980.83,7.0,99,4.30,NA,981.55,NA
2019-05-12 02:40,NA,NA,5.3,8.3,166,981.01,6.9,99,4.24,NA,981.73,NA
2019-05-12 02:50,NA,NA,5.8,8.5,196,980.88,5.9,99,4.36,NA,981.61,NA
2019-05-12 03:10,NA,NA,5.0,6.2,164,981.05,5.3,100,5.25,NA,981.77,NA
2019-05-12 03:20,NA,NA,6.6,7.7,173,981.11,6.2,100,5.52,NA,981.83,NA
2019-05-12 03:30,NA,NA,6.2,7.6,170,981.18,7.1,100,5.50,NA,981.90,NA
2019-05-12 03:40,NA,NA,5.9,6.8,177,981.13,7.1,100,4.97,NA,981.84,NA
2019-05-12 03:50,NA,NA,5.0,6.2,180,981.09,6.7,100,5.10,NA,981.80,NA
2019-05-12 04:00,NA,NA,3.4,4.5,185,981.05,6.3,100,5.09,NA,981.77,NA
2019-05-12 04:10,NA,NA,3.4,4.1,188,980.98,5.7,100,4.79,NA,981.70,NA
2019-05-12 04:20,NA,NA,2.7,4.5,173,981.02,5.4,100,4.99,NA,981.74,NA
2019-05-12 04:30,NA,NA,3.3,5.2,158,981.07,5.9,100,4.81,NA,981.79,NA
2019-05-12 04:40,NA,NA,4.7,6.2,143,981.10,6.1,100,4.66,NA,981.82,NA
2019-05-12 04:50,NA,NA,4.3,6.7,128,981.08,7.1,100,4.49,NA,981.80,NA
2019-05-12 05:00,NA,NA,4.5,6.4,111,981.13,7.8,99,4.55,NA,981.85,NA
2019-05-12 05:10,NA,NA,4.6,5.9,87,981.17,8.3,99,4.46,NA,981.89,NA
2019-05-12 05:20,NA,NA,4.4,5.9,103,981.15,8.3,99,4.61,NA,981.87,NA
2019-05-12 05:30,NA,NA,3.9,5.7,94,981.19,8.3,99,5.05,NA,981.91,NA
2019-05-12 05:40,NA,NA,3.9,5.6,96,981.17,8.2,100,5.66,NA,981.88,NA
2019-05-12 05:50,NA,NA,4.3,5.9,87,981.18,8.1,100,5.83,NA,981.90,NA
2019-05-12 06:00,NA,NA,3.8,6.1,90,981.13,8.1,100,5.69,NA,981.85,NA
2019-05-12 06:10,NA,NA,3.1,4.6,84,981.22,8.1,100,5.79,NA,981.94,NA
2019-05-12 06:20,NA,NA,5.3,9.5,96,981.18,8.1,100,6.10,NA,981.90,NA
2019-05-12 06:30,NA,NA,7.2,9.7,104,981.04,8.1,101,6.23,NA,981.75,NA
2019-05-12 06:40,NA,NA,8.8,12.5,109,980.95,7.8,101,6.08,NA,981.66,NA
2019-05-12 06:50,NA,NA,5.8,9.2,115,981.07,7.6,101,6.07,NA,981.79,NA
2019-05-12 07:00,NA,NA,5.5,7.0,115,981.10,7.3,101,6.28,NA,981.81,NA
2019-05-12 07:10,NA,NA,7.8,11.3,112,981.02,7.2,101,6.32,NA,981.74,NA
2019-05-12 07:20,NA,NA,7.2,12.5,122,981.09,7.0,101,6.25,NA,981.80,NA
2019-05-12 07:30,NA,NA,8.2,11.4,124,981.14,6.8,102,6.26,NA,981.86,NA
2019-05-12 07:40,NA,NA,7.4,10.8,118,981.16,6.7,102,6.32,NA,981.88,NA
2019-05-12 07:50,NA,NA,6.4,9.5,120,981.21,6.7,102,6.33,NA,981.93,NA
2019-05-12 08:00,NA,NA,5.5,8.4,105,981.28,6.7,102,6.32,NA,982.00,NA
2019-05-12 08:10,NA,NA,7.3,9.9,117,981.25,6.7,102,6.36,NA,981.97,NA
2019-05-12 08:20,NA,NA,7.0,11.5,114,981.29,6.6,102,6.37,NA,982.01,NA
2019-05-12 08:30,NA,NA,9.4,13.1,112,981.20,6.6,102,6.36,NA,981.91,NA
2019-05-12 08:40,NA,NA,7.9,11.3,113,981.33,6.6,102,6.38,NA,982.05,NA
2019-05-12 08:50,NA,NA,6.5,9.4,104,981.44,6.5,102,6.38,NA,982.16,NA
2019-05-12 09:00,NA,NA,5.9,9.6,101,981.53,6.4,102,6.31,NA,982.25,NA
2019-05-12 09:10,NA,NA,4.6,7.3,113,981.63,6.3,102,6.31,NA,982.35,NA
2019-05-12 09:20,NA,NA,7.2,11.5,136,981.65,5.9,102,6.30,NA,982.37,NA
2019-05-12 09:30,NA,NA,8.3,12.1,134,981.67,5.7,102,6.21,NA,982.39,NA
2019-05-12 10:00,NA,NA,6.6,9.0,113,981.89,5.6,103,6.24,NA,982.61,NA
2019-05-12 10:10,NA,NA,5.7,9.1,119,981.92,5.6,103,6.18,NA,982.65,NA
2019-05-12 10:20,NA,NA,5.1,8.4,131,982.04,5.4,103,6.14,NA,982.76,NA
2019-05-12 10:30,NA,NA,5.7,9.3,131,982.04,5.4,103,6.08,NA,982.76,NA
2019-05-12 10:40,NA,NA,6.9,9.6,132,982.05,5.3,103,6.08,NA,982.78,NA
2019-05-12 10:50,NA,NA,7.0,9.6,142,982.08,5.1,103,6.10,NA,982.81,NA
2019-05-12 11:00,NA,NA,6.6,9.4,116,982.11,5.3,103,6.10,NA,982.83,NA
2019-05-12 11:10,NA,NA,5.6,8.2,123,982.13,5.4,104,6.11,NA,982.85,NA
2019-05-12 11:20,NA,NA,5.5,7.8,108,982.24,5.5,104,6.10,NA,982.97,NA
2019-05-12 11:30,NA,NA,4.8,6.9,105,982.33,5.6,104,6.05,NA,983.05,NA
2019-05-12 11:40,NA,NA,4.8,6.7,103,982.33,5.7,104,6.05,NA,983.05,NA
2019-05-12 11:50,NA,NA,4.7,7.3,107,982.36,5.9,104,6.07,NA,983.08,NA
2019-05-12 12:00,NA,NA,4.7,7.5,111,982.51,5.9,103,6.08,NA,983.23,NA
